Terminal Aerodrome Forecast
Issued by NWS

Home | Current Version | Previous Version | Text Only | Print | Product List | Glossary On
Versions: 1 2 3 4 5 6 7 8 9 10 11 12 13 14 15 16 17 18 19 20 21 22 23 24 25 26 27 28 29 30 31 32 33 34 35 36 37 38
000
FTUS44 KFWD 161127
TAFAFW
TAF
KAFW 161127Z 1612/1712 23004KT 1/4SM FG VV002
      TEMPO 1612/1616 1/2SM FG OVC002
     FM161600 26008KT 4SM BR BKN005
     FM161900 27008KT P6SM SCT250
     FM170000 34007KT P6SM SCT070 BKN250=

USA.gov is the U.S. government's official web portal to all federal, state and local government web resources and services.